TimeCST,TemperatureF,Dew PointF,Humidity,Sea Level PressureIn,VisibilityMPH,Wind Direction,Wind SpeedMPH,Gust SpeedMPH,PrecipitationIn,Events,Conditions,WindDirDegrees,DateUTC
12:14 AM,39.2,37.4,93,29.57,0.2,ENE,9.2,24.2,0.02,Rain-Thunderstorm,Rain,70,2012-11-11 06:14:00
12:33 AM,39.2,37.4,93,29.55,1.0,ENE,10.4,-,0.10,Rain-Thunderstorm,Light Thunderstorms and Rain,60,2012-11-11 06:33:00
12:53 AM,41.0,37.4,87,29.55,3.0,ENE,9.2,-,0.17,Rain,Rain,70,2012-11-11 06:53:00
1:14 AM,41.0,39.2,93,29.54,7.0,ENE,10.4,-,0.02,Rain,Light Rain,60,2012-11-11 07:14:00
1:33 AM,42.8,39.2,87,29.54,5.0,ENE,6.9,-,0.02,,Drizzle,70,2012-11-11 07:33:00
1:53 AM,42.8,39.2,87,29.54,0.2,ENE,6.9,-,0.03,Rain,Light Rain,70,2012-11-11 07:53:00
2:14 AM,42.8,39.2,87,29.54,0.2,East,3.5,-,0.01,,Heavy Drizzle,80,2012-11-11 08:14:00
2:33 AM,44.6,42.8,93,29.55,0.2,East,3.5,-,0.03,,Drizzle,80,2012-11-11 08:33:00
2:54 AM,42.8,41.0,93,29.51,0.2,NNE,4.6,-,0.04,Rain,Rain,30,2012-11-11 08:54:00
3:13 AM,44.6,41.0,87,29.49,0.2,ENE,6.9,-,N/A,,Light Drizzle,70,2012-11-11 09:13:00
3:33 AM,46.4,42.8,87,29.48,0.2,East,6.9,-,N/A,Fog,Fog,90,2012-11-11 09:33:00
3:54 AM,46.4,42.8,87,29.51,0.2,SE,3.5,-,N/A,Fog,Fog,130,2012-11-11 09:54:00
4:13 AM,46.4,44.6,93,29.51,0.2,SE,3.5,-,N/A,Fog,Fog,140,2012-11-11 10:13:00
4:34 AM,46.4,44.6,93,29.50,1.2,SE,6.9,-,N/A,,Overcast,130,2012-11-11 10:34:00
5:34 AM,46.4,44.6,93,29.50,0.5,SSE,8.1,-,N/A,Fog,Fog,150,2012-11-11 11:34:00
5:53 AM,48.2,46.4,93,29.50,2.0,South,10.4,17.3,N/A,,Overcast,180,2012-11-11 11:53:00
6:14 AM,48.2,46.4,93,29.50,2.0,SSE,11.5,19.6,N/A,,Overcast,160,2012-11-11 12:14:00
6:53 AM,48.2,46.4,93,29.53,1.8,South,13.8,23.0,N/A,,Overcast,190,2012-11-11 12:53:00
7:33 AM,48.2,46.4,93,29.53,1.8,SSW,11.5,23.0,N/A,,Overcast,200,2012-11-11 13:33:00
7:54 AM,48.2,44.6,87,29.54,2.0,SSW,12.7,20.7,N/A,,Overcast,200,2012-11-11 13:54:00
8:13 AM,48.2,44.6,87,29.54,3.0,SSW,9.2,21.9,N/A,,Overcast,200,2012-11-11 14:13:00
8:53 AM,46.4,44.6,93,29.54,7.0,SSW,8.1,17.3,N/A,,Overcast,210,2012-11-11 14:53:00
9:13 AM,46.4,44.6,93,29.54,4.0,SSW,9.2,-,N/A,,Overcast,200,2012-11-11 15:13:00
9:34 AM,46.4,44.6,93,29.53,7.0,SW,6.9,-,N/A,,Overcast,220,2012-11-11 15:34:00
9:54 AM,46.4,42.8,87,29.54,7.0,SW,5.8,-,N/A,,Overcast,220,2012-11-11 15:54:00
10:13 AM,46.4,42.8,87,29.55,7.0,SSW,5.8,-,N/A,,Overcast,210,2012-11-11 16:13:00
10:33 AM,46.4,42.8,87,29.56,3.0,SW,4.6,-,N/A,,Overcast,230,2012-11-11 16:33:00
10:54 AM,44.6,42.8,93,29.57,2.0,SSW,4.6,-,N/A,,Drizzle,210,2012-11-11 16:54:00
11:13 AM,44.6,41.0,87,29.55,4.0,Calm,Calm,-,N/A,,Overcast,0,2012-11-11 17:13:00
11:33 AM,44.6,41.0,87,29.54,5.0,SW,3.5,-,N/A,,Overcast,230,2012-11-11 17:33:00
12:13 PM,42.8,39.2,87,29.55,10.0,WSW,3.5,-,N/A,,Overcast,250,2012-11-11 18:13:00
12:33 PM,41.0,37.4,87,29.57,5.0,West,8.1,-,N/A,Rain,Rain,270,2012-11-11 18:33:00
12:54 PM,37.4,35.6,93,29.56,7.0,WNW,11.5,16.1,0.03,Rain,Light Rain,290,2012-11-11 18:54:00
1:13 PM,37.4,33.8,87,29.56,10.0,WNW,3.5,-,N/A,Rain,Light Rain,290,2012-11-11 19:13:00
1:33 PM,37.4,33.8,87,29.57,10.0,Calm,Calm,-,0.01,Rain,Light Rain,0,2012-11-11 19:33:00
1:54 PM,-9999,-9999,N/A,29.54,-9999.0,WNW,3.5,-,N/A,,Unknown,290,2012-11-11 19:54:00
2:14 PM,35.6,33.8,93,29.54,10.0,West,4.6,-,N/A,,Overcast,270,2012-11-11 20:14:00
2:33 PM,35.6,32.0,87,29.56,10.0,SW,3.5,-,N/A,,Overcast,230,2012-11-11 20:33:00
2:54 PM,35.6,30.2,81,29.56,10.0,West,5.8,-,N/A,,Overcast,270,2012-11-11 20:54:00
3:13 PM,33.8,30.2,87,29.56,10.0,West,8.1,-,N/A,,Overcast,270,2012-11-11 21:13:00
3:33 PM,33.8,30.2,87,29.56,10.0,West,6.9,-,N/A,,Overcast,280,2012-11-11 21:33:00
3:53 PM,33.8,28.4,81,29.57,10.0,West,8.1,-,N/A,,Overcast,280,2012-11-11 21:53:00
4:14 PM,32.0,28.4,87,29.56,10.0,West,6.9,-,N/A,,Overcast,280,2012-11-11 22:14:00
4:33 PM,32.0,28.4,87,29.57,10.0,West,6.9,-,N/A,,Overcast,280,2012-11-11 22:33:00
4:53 PM,32.0,28.4,87,29.56,10.0,WNW,4.6,-,N/A,,Overcast,290,2012-11-11 22:53:00
5:14 PM,30.2,28.4,93,29.57,10.0,West,5.8,-,N/A,,Overcast,270,2012-11-11 23:14:00
5:33 PM,30.2,26.6,86,29.57,10.0,WNW,6.9,-,N/A,,Overcast,290,2012-11-11 23:33:00
5:53 PM,30.2,26.6,86,29.58,10.0,West,4.6,-,N/A,,Overcast,270,2012-11-11 23:53:00
6:14 PM,30.2,24.8,80,29.58,7.0,West,6.9,-,N/A,Snow,Light Snow,280,2012-11-12 00:14:00
6:33 PM,30.2,24.8,80,29.59,10.0,West,5.8,-,N/A,,Overcast,280,2012-11-12 00:33:00
6:53 PM,28.4,24.8,86,29.58,10.0,West,8.1,16.1,N/A,,Overcast,270,2012-11-12 00:53:00
7:14 PM,28.4,24.8,86,29.60,5.0,WSW,6.9,-,N/A,Snow,Snow,250,2012-11-12 01:14:00
7:33 PM,28.4,24.8,86,29.61,1.8,West,5.8,-,N/A,Snow,Light Snow,280,2012-11-12 01:33:00
7:54 PM,26.6,23.0,86,29.60,4.0,West,9.2,16.1,N/A,Snow,Light Snow,280,2012-11-12 01:54:00
8:13 PM,26.6,23.0,86,29.59,10.0,West,15.0,18.4,N/A,,Overcast,280,2012-11-12 02:13:00
8:34 PM,26.6,21.2,80,29.61,10.0,West,9.2,19.6,N/A,,Overcast,260,2012-11-12 02:34:00
8:54 PM,24.8,19.4,80,29.62,10.0,West,11.5,19.6,N/A,,Overcast,270,2012-11-12 02:54:00
9:13 PM,24.8,19.4,80,29.62,10.0,WSW,8.1,18.4,N/A,,Overcast,250,2012-11-12 03:13:00
9:34 PM,24.8,19.4,80,29.63,10.0,West,10.4,17.3,N/A,,Overcast,280,2012-11-12 03:34:00
9:54 PM,24.8,19.4,80,29.64,10.0,West,9.2,16.1,N/A,,Overcast,260,2012-11-12 03:54:00
10:13 PM,23.0,17.6,80,29.65,10.0,West,8.1,19.6,N/A,,Overcast,270,2012-11-12 04:13:00
10:33 PM,23.0,19.4,86,29.65,10.0,West,6.9,-,N/A,,Overcast,270,2012-11-12 04:33:00
10:54 PM,23.0,17.6,80,29.65,10.0,West,8.1,-,N/A,,Overcast,260,2012-11-12 04:54:00
11:13 PM,21.2,17.6,86,29.66,10.0,West,11.5,-,N/A,,Overcast,280,2012-11-12 05:13:00
11:34 PM,21.2,17.6,86,29.67,10.0,WSW,6.9,17.3,N/A,,Overcast,240,2012-11-12 05:34:00
11:54 PM,21.2,15.8,80,29.67,10.0,WSW,9.2,16.1,N/A,,Overcast,240,2012-11-12 05:54:00